sat.trackr.live / text

‹ back to catalog

2022-167F

NORAD 54687 · 2022-167F

PAYLOAD ACTIVE UNKNOWN

§ Identity

Operator
Country
PRC
Launch date
2022-12-09
Launch site
SEAL
Launch vehicle
Mass (kg)
RCS (m²)

External: N2YO · Heavens-Above · Gunter

§ Orbital elements

Epoch: 2026-05-25T05:02:19.715424Z

Period
90.92 min
Inclination
97.6156°
Eccentricity
0.0002641
Mean motion
15.83745758 rev/d
Perigee alt
318.1 km
Apogee alt
321.6 km
Semi-major
6,698.0 km
B*
6.6047e-4
RAAN
330.4411°
Arg perigee
158.3658°
Mean anomaly
201.7723°
Rev number
19,318

§ Raw data

2022-167F1 54687U 22167F   26145.20995041  .00147244  00000+0  66047-3 0  99932 54687  97.6156 330.4411 0002641 158.3658 201.7723 15.83745758193188

JSON: /api/v1/satellites/54687 · /tle

For live sub-satellite position, see the globe view (requires WebGL).

§ Visibility from observer

Set your observer location to see the next 7 days of passes ≥ 10°. The values pass through the URL so the page stays shareable.

No JS? Fill the form by hand. The geolocation button needs JavaScript.

§ Radio — SatNOGS DB

ModeDescriptionDownlinkUplink
FSK UHF Unknown 400.550 MHz

1 transmitter · refreshed weekly from db.satnogs.org